Location: Seaview
(40.6470°N, 73.1490°W)
Time: 03:34:30
(UTC+00:00)

Daily predictions for brighter satellites

Satellite Brightness Start Highest point End
(mag) Time Altitude Azimuth Time Altitude Azimuth Time Altitude Azimuth
STARLINK-1062 4.5 00:01:52 10° WSW 00:05:52 46° NNW 00:08:35 19° NE
Meteor 1-14 Rocket 4.1 00:02:19 10° S 00:07:50 80° E 00:13:25 10° NNE
CZ-4 R/B 3.8 00:04:21 10° SSW 00:07:52 26° W 00:11:22 10° NW
Cosmos 405 3.0 00:04:50 10° NNW 00:08:24 81° W 00:11:56 10° S
Cosmos 2219 4.2 00:05:11 10° N 00:09:59 26° NE 00:10:37 26° ENE
CZ-2C R/B 4.5 00:06:22 10° NNE 00:11:24 32° ESE 00:14:55 10° SSE
Gbstr 26 Del rocket 4.0 00:07:10 10° W 00:11:01 42° NNW 00:14:00 19° NE
ATLAS 2AS CENTAUR R/B 4.4 00:07:31 10° SSE 00:10:03 17° SE 00:10:03 17° SE
Meteor 2-4 Rocket 4.0 00:10:27 10° N 00:16:11 47° ENE 00:19:26 24° SE
Centaur D AC-28 3.7 00:10:49 10° WSW 00:17:49 25° SSW 00:20:11 16° SSE
SL-24 DEB 4.3 00:14:53 11° SSE 00:19:12 56° E 00:23:45 10° N
SJ-6B 3.7 00:21:57 33° NNE 00:21:57 33° NNE 00:24:23 10° N
Hubble Space Telescope 3.2 00:19:21 10° SW 00:21:00 12° S 00:22:14 11° S
GPS 2-04 Rocket1 3.5 00:19:29 10° WSW 00:23:27 40° S 00:24:07 37° SSE
Meteor 1-19 Rocket 4.1 00:19:29 10° N 00:25:17 88° E 00:30:51 10° S
USA 102 4.4 00:26:10 42° N 00:27:38 68° WNW 00:33:04 10° SW
ADEOS Rocket 4.2 00:20:07 10° N 00:27:41 56° WNW 00:34:59 10° SW
ARGOS 3.0 00:28:08 25° SSE 00:31:21 70° ENE 00:36:46 10° N
Cosmos 2221 Rocket 3.5 00:31:16 10° N 00:35:30 65° ENE 00:35:30 65° ENE
Cosmos 1814 Rocket 3.8 00:32:16 10° SSW 00:37:21 77° ESE 00:41:15 18° NNE
Lacrosse 5 2.5 00:36:39 10° WSW 00:41:38 54° NW 00:43:56 30° NNE
Nadezhda 4 Rocket 4.0 00:35:50 10° N 00:42:10 81° W 00:48:29 10° S
Cosmos 1898 Rocket 4.3 00:39:23 10° NNW 00:44:24 51° WSW 00:49:20 10° S
Cosmos 841 Rocket 3.4 00:39:49 10° SSW 00:44:57 82° WNW 00:50:09 10° NNE
SPOT 3 Rocket 3.4 00:46:04 66° ENE 00:46:04 66° ENE 00:51:13 10° N
Meteor 2-9 4.5 00:41:03 10° S 00:46:26 89° ESE 00:51:51 10° N
Cosmos 2208 Rocket 4.2 00:41:51 10° SSW 00:47:15 72° WNW 00:52:37 10° NNE
Cosmos 2026 Rocket 4.1 00:42:16 10° N 00:47:37 49° ENE 00:47:37 49° ENE
CZ-2C R/B 3.3 00:47:08 20° S 00:51:17 81° WSW 00:57:01 10° NNW
ARGOS Delta rocket 4.0 00:57:49 57° NNW 00:57:49 57° NNW 01:01:28 10° NNW
Meteor 1-13 Rocket 4.1 00:51:11 10° N 00:56:54 72° ENE 00:56:54 72° ENE
Cosmos 44 Rocket 4.0 00:56:59 10° NW 01:01:33 48° WSW 01:02:12 45° SW
Cosmos 2297 Rocket 3.0 01:02:43 10° NNW 01:06:34 39° NNE 01:06:34 39° NNE
Resurs 01 Rocket 4.1 01:18:16 14° N 01:18:16 14° N 01:18:54 10° N
Cosmos 540 Rocket 4.2 01:09:35 10° SW 01:14:33 50° WNW 01:17:25 24° N
NOSS 3-2 (A) 4.0 01:08:53 10° NNW 01:16:25 63° NE 01:16:38 62° ENE
Lacrosse 5 rocket 3.7 01:14:16 10° NNW 01:16:01 20° NNW 01:16:01 20° NNW
NOSS 3-2 (C) 4.4 01:12:24 10° NNW 01:19:10 47° NE 01:19:10 47° NE
SJ 16-02 3.9 01:18:56 10° NW 01:21:57 18° W 01:24:31 12° SW
Cosmos 2227 Rocket 3.3 01:21:39 10° NNW 01:24:54 35° N 01:24:54 35° N
Cosmos 1634 Rocket 4.3 01:23:50 10° SSW 01:30:06 66° W 01:36:25 10° N
CENTAUR R/B 3.6 01:23:43 10° NNW 01:30:39 46° NNE 01:30:39 46° NNE
H-2A R/B 4.0 01:19:39 10° WSW 01:33:30 29° SSW 01:33:32 29° SSW
H-2A R/B 4.2 01:37:19 10° SW 01:41:34 24° W 01:45:53 10° NW
ATLAS 3B R/B 4.1 01:39:16 10° NNW 01:42:54 26° N 01:42:54 26° N
ATLAS 2AS CENTAUR R/B 4.5 01:54:57 10° SSW 01:57:39 24° SSW 01:57:39 24° SSW
CZ-2C R/B 4.4 08:14:34 10° NE 08:18:31 25° E 08:18:31 25° E
USA 215 3.6 08:22:09 10° NE 08:27:25 59° NNE 08:27:25 59° NNE
Cosmos 1656 Rocket 4.3 08:40:34 52° E 08:40:34 52° E 08:45:21 10° SE
Cosmos 1727 Rocket 4.1 08:59:56 60° NNW 08:59:56 60° NNW 09:05:02 10° N
USA 267 3.7 08:53:59 10° ESE 09:00:21 58° NE 09:03:44 29° NNW
NOSS 3-3 (A) 3.7 09:08:21 75° SSW 09:08:56 89° SE 09:15:26 10° NE
NOSS 3-3 (C) 3.7 09:08:24 73° SSW 09:09:01 88° SE 09:15:33 10° NE
IDEFIX/ARIANE 42P 4.3 09:07:54 10° N 09:09:47 21° NNW 09:09:47 21° NNW
Cosmos 1459 Rocket 4.1 09:07:22 10° N 09:13:38 76° E 09:19:57 10° SSE
Cosmos 1000 Rocket 4.4 09:11:42 19° S 09:16:19 83° E 09:22:36 10° N
DELTA 2 R/B (1) 3.4 09:19:06 75° WSW 09:19:32 82° S 09:25:07 10° E
Cosmos 1805 Rocket 4.0 09:16:53 10° N 09:22:15 52° SSE 09:25:35 10° S
Atlas Centaur 2 3.6 09:20:39 32° SSW 09:22:50 38° S 09:30:25 10° ESE
Cosmos 1943 4.3 09:25:11 28° NNW 09:25:11 28° NNW 09:28:50 10° N
Cosmos 2100 Rocket 3.8 09:17:45 10° N 09:23:57 83° W 09:30:05 10° S
STARLINK-1165 4.4 09:25:34 39° NE 09:25:34 39° NE 09:28:35 10° ESE
STARLINK-1169 4.2 09:28:27 42° NE 09:28:27 42° NE 09:31:39 10° ESE
Cosmos 676 Rocket 4.3 09:30:08 49° NW 09:30:08 49° NW 09:34:57 10° N
MSX 4.3 09:25:11 10° N 09:29:57 41° NW 09:29:57 41° NW
STARLINK-1178 4.1 09:31:21 45° NE 09:31:21 45° NE 09:34:42 10° ESE
STARLINK-1120 3.9 09:34:12 48° NNE 09:34:16 48° NE 09:37:41 10° ESE
PAYLOAD A 4.1 09:29:21 10° N 09:34:10 51° WNW 09:34:10 51° WNW
CZ-4B R/B 4.1 09:30:43 10° NNE 09:35:12 82° ESE 09:38:04 22° S
SL-8 R/B 3.7 09:34:40 58° SW 09:35:33 77° SSE 09:40:23 10° ENE
ATLAS 2AS CENTAUR R/B 3.9 09:29:54 10° NNW 09:37:07 44° NE 09:43:44 10° ESE
ISS -2.5 09:38:12 34° NNE 09:38:12 34° NNE 09:40:31 10° NE
STARLINK-1131 3.8 09:37:08 50° NNE 09:37:18 51° NE 09:40:45 10° ESE
STARLINK-1190 3.7 09:40:05 52° NNE 09:40:24 54° NE 09:43:52 10° ESE
Cosmos 1725 Rocket 4.3 09:36:41 10° N 09:42:59 71° E 09:49:16 10° SSE
ADEOS 4.0 09:38:24 10° N 09:43:04 39° WNW 09:43:04 39° WNW
BREEZE-M DEB (TANK) 4.0 09:41:10 31° NW 09:43:45 76° NNE 10:00:15 10° ESE
Cosmos 2123 Rocket 4.0 09:37:45 10° S 09:44:03 82° E 09:50:21 10° N
Cosmos 1400 Rocket 2.7 09:44:06 53° SSW 09:44:58 74° W 09:49:06 10° N
Cosmos 1315 Rocket 4.4 09:41:23 10° SSE 09:44:59 36° E 09:48:35 10° NNE
Spot 2 4.3 09:44:53 10° N 09:48:58 46° WNW 09:49:01 46° WNW
Meteor PRIRODA 3.8 09:47:16 10° NNE 09:50:56 71° ESE 09:54:33 10° S
Cosmos 1818 4.2 09:46:48 10° SSW 09:52:05 57° ESE 09:57:26 10° NE
STARLINK-1149 2.9 09:57:19 56° SSE 09:57:19 56° SSE 09:59:43 10° SE
CZ-2C R/B 3.0 09:52:20 10° N 09:57:00 37° WNW 09:57:55 34° W
Cosmos 1864 Rocket 4.4 09:51:31 10° N 09:57:42 88° W 10:03:55 10° S
ALOS 2.6 09:54:56 10° NNE 09:59:36 68° ESE 10:04:14 10° S
SL-08 R/B 4.3 09:55:12 10° N 10:01:19 80° W 10:07:23 10° S
H-2A R/B 2.7 09:57:54 10° N 10:02:18 56° WNW 10:06:35 11° SSW
Cosmos 1484 Rocket 2.7 09:59:02 10° N 10:03:01 70° WNW 10:07:00 10° SSW
Cosmos 2061 Rocket 3.9 09:58:12 10° NNW 10:04:19 62° W 10:10:24 10° S
BREEZE-M DEB (TANK) 3.0 10:01:21 26° WSW 10:04:22 73° NNW 10:07:08 10° NE
TELKOM 3 2.9 10:08:17 66° E 10:08:17 66° E 10:10:09 10° ESE
Cosmos 1606 3.2 10:05:03 10° S 10:08:46 60° E 10:12:29 10° NNE
Cosmos 1633 Rocket 2.9 10:05:08 10° N 10:09:31 76° W 10:13:55 10° S
Cosmos 1802 Rocket 4.2 10:04:03 10° NNW 10:10:10 48° W 10:16:14 10° SSW
USA 215 4.3 10:05:33 10° NE 10:11:03 30° NNW 10:14:46 18° WNW
Shenzhou-11 Module 2.0 10:11:46 44° SSW 10:11:52 44° SSW 10:14:22 10° SE
Cosmos 1515 Rocket 4.1 10:08:47 10° S 10:13:08 61° E 10:17:29 10° NNE
Cosmos 2016 Rocket 4.1 10:07:33 10° NNW 10:13:40 54° W 10:19:49 10° SSW
STARLINK-1129 3.1 10:12:02 29° WNW 10:13:41 75° SW 10:17:13 10° SE
COSMOS 2406 4.1 10:09:24 10° S 10:14:52 52° ESE 10:20:21 10° NNE
Cosmos 1238 Rocket 3.8 10:13:44 10° NNW 10:18:20 33° W 10:22:13 10° SSW
Okean O Rocket 2.9 10:15:05 10° NNE 10:19:14 43° E 10:23:21 10° S
Cosmos 1666 Rocket 3.8 10:15:28 10° NNW 10:19:41 46° W 10:23:50 10° SSW
COSMO-SKYMED 1 2.5 10:15:46 10° S 10:20:05 72° W 10:24:26 10° NNW
Cosmos 1933 Rocket 4.4 10:15:54 10° N 10:20:09 52° E 10:24:22 10° SSE
GEOS 3 Rocket 4.0 10:15:23 10° NE 10:20:42 71° SE 10:26:03 10° SSW
STARLINK-1134 3.2 10:18:58 24° WNW 10:20:53 63° SW 10:24:25 10° SE
OAO 3 Rocket 4.2 10:19:18 15° SW 10:22:47 38° S 10:27:20 10° ESE
STARLINK-1135 3.3 10:21:58 23° WNW 10:24:00 58° SW 10:27:30 10° SE
CZ-4B R/B 3.5 10:21:44 10° N 10:24:52 28° WNW 10:26:51 17° WSW
FENGYUN 3A 3.6 10:20:10 10° N 10:25:36 73° WNW 10:31:00 10° SSW
STARLINK-1179 3.8 10:26:14 25° WSW 10:26:52 28° SW 10:29:26 10° SSE
STARLINK-1176 3.8 10:26:27 25° WSW 10:27:06 27° SW 10:29:39 10° SSE
STARLINK-1141 3.4 10:24:59 21° WNW 10:27:09 54° SW 10:30:38 10° SE
Cosmos 2233 Rocket 4.0 10:20:51 10° N 10:27:10 83° W 10:33:29 10° S
ERBS 2.9 10:25:41 24° W 10:27:12 38° NW 10:30:23 10° NNE
STARLINK-1132 3.7 10:26:34 25° WSW 10:27:20 29° SW 10:29:56 10° SSE
STARLINK-1150 3.7 10:26:54 25° WSW 10:27:40 29° SW 10:30:16 10° SSE
STARLINK-1163 3.7 10:27:06 25° WSW 10:27:54 29° SW 10:30:30 10° SSE
STARLINK-1177 3.7 10:27:19 25° WSW 10:28:07 29° SW 10:30:42 10° SSE
STARLINK-1167 3.7 10:27:31 24° WSW 10:28:22 29° SW 10:30:58 10° SSE
STARLINK-1173 3.7 10:27:43 24° WSW 10:28:33 29° SW 10:31:09 10° SSE
STARLINK-1136 3.7 10:27:58 24° WSW 10:28:47 29° SW 10:31:22 10° SSE
STARLINK-1153 3.5 10:28:14 25° W 10:29:16 33° SW 10:31:56 10° SSE
STARLINK-1180 3.5 10:28:25 24° W 10:29:29 33° SW 10:32:09 10° SSE
STARLINK-1174 3.5 10:28:52 24° W 10:29:56 32° SW 10:32:35 10° SSE
STARLINK-1139 3.6 10:29:06 24° W 10:30:09 32° SW 10:32:48 10° SSE
STARLINK-1140 3.5 10:28:02 19° WNW 10:30:18 50° SW 10:33:46 10° SSE
STARLINK-1133 3.6 10:29:19 24° W 10:30:23 32° SW 10:33:02 10° SSE
STARLINK-1151 3.6 10:29:31 24° W 10:30:36 32° SW 10:33:14 10° SSE
MOS 1-B 4.3 10:25:20 10° NNE 10:31:10 83° WNW 10:36:58 10° SSW
STARLINK-1160 3.6 10:30:10 23° W 10:31:16 31° SW 10:33:54 10° SSE
STARLINK-1161 3.6 10:30:23 23° W 10:31:30 31° SW 10:34:08 10° SSE
STARLINK-1145 3.6 10:30:37 23° W 10:31:44 31° SW 10:34:21 10° SSE
Cosmos 1862 4.4 10:28:38 10° NW 10:31:46 22° W 10:34:54 10° SW
STARLINK-1172 3.6 10:30:49 23° W 10:31:56 31° SW 10:34:34 10° SSE
STARLINK-1182 3.6 10:31:15 22° W 10:32:24 30° SW 10:35:00 10° SSE
STARLINK-1164 3.7 10:31:28 22° W 10:32:37 30° SW 10:35:14 10° SSE
STARLINK-1168 3.7 10:31:42 22° W 10:32:51 30° SW 10:35:27 10° SSE
STARLINK-1156 3.5 10:31:04 18° WNW 10:33:28 47° SW 10:36:54 10° SSE
STARLINK-1183 3.7 10:32:20 21° W 10:33:30 29° SW 10:36:06 10° SSE
STARLINK-1181 3.7 10:32:34 21° W 10:33:44 29° SW 10:36:20 10° SSE
Meteor 1-31 Rocket 4.1 10:31:08 10° NNW 10:33:55 19° WNW 10:35:16 16° W
STARLINK-1196 3.7 10:33:11 21° W 10:34:24 29° SW 10:37:00 10° SSE
STARLINK-1186 3.7 10:33:38 21° W 10:34:51 28° SW 10:37:26 10° SSE
STARLINK-1185 3.8 10:33:51 20° W 10:35:05 28° SW 10:37:39 10° SSE
Cosmos 2228 Rocket 3.7 10:30:48 10° S 10:35:08 62° E 10:39:33 10° NNE
STARLINK-1175 3.8 10:34:04 20° W 10:35:18 28° SW 10:37:52 10° SSE
STARLINK-1147 3.8 10:34:16 20° W 10:35:31 28° SW 10:38:05 10° SSE
STARLINK-1146 3.8 10:34:28 20° W 10:35:45 28° SW 10:38:19 10° SSE
Cosmos 1346 Rocket 2.7 10:31:56 10° NNW 10:35:46 60° W 10:39:35 10° S
STARLINK-1152 3.8 10:34:42 20° W 10:35:58 28° SW 10:38:32 10° SSE
STARLINK-1195 3.8 10:34:55 20° W 10:36:11 27° SW 10:38:45 10° SSE
STARLINK-1137 3.8 10:35:09 20° W 10:36:25 27° SW 10:38:58 10° SSE
STARLINK-1148 3.6 10:34:07 16° WNW 10:36:37 43° SW 10:40:02 10° SSE
STARLINK-1142 3.8 10:35:22 19° W 10:36:39 27° SW 10:39:11 10° SSE
STARLINK-1127 3.8 10:35:35 19° W 10:36:52 27° SW 10:39:25 10° SSE
STARLINK-1184 3.8 10:35:47 19° W 10:37:05 27° SW 10:39:37 10° SSE
STARLINK-1193 3.8 10:36:01 19° W 10:37:19 27° SW 10:39:51 10° SSE
STARLINK-1194 3.8 10:36:13 19° W 10:37:32 27° SW 10:40:03 10° SSE
Cosmos 1340 3.0 10:34:47 10° NNW 10:38:20 40° W 10:41:52 10° SSW
STARLINK-1158 3.8 10:37:10 15° WNW 10:39:48 41° SW 10:43:10 10° SSE
ADEOS Rocket 3.6 10:33:20 10° SSE 10:39:50 74° ENE 10:47:06 10° N
Sich 1 4.3 10:37:41 10° NW 10:40:42 19° W 10:43:44 10° SW
Meteor 1-26 Rocket 4.5 10:36:52 10° S 10:42:38 81° E 10:48:35 10° NNE
PSLV R/B 4.3 10:39:46 10° N 10:43:18 36° WNW 10:46:52 10° SW
STARLINK-1170 4.3 10:42:27 15° WSW 10:43:25 17° SW 10:45:21 10° S
USA 267 3.7 10:37:20 10° SSE 10:43:27 42° SW 10:49:36 10° WNW
STARLINK-1162 3.9 10:41:47 14° WNW 10:44:26 34° SW 10:47:38 10° SSE
H-2A R/B 3.9 10:42:32 10° NNE 10:46:08 46° E 10:49:41 10° S
STARLINK-1157 4.0 10:44:33 13° WNW 10:47:18 32° SW 10:50:28 10° SSE
COSMOS 2455 3.0 10:43:04 10° NNW 10:49:08 80° ENE 10:55:08 10° SSE
STARLINK-1159 4.1 10:47:27 12° WNW 10:50:18 30° SW 10:53:25 10° SSE
Cosmos 1151 Rocket 3.8 10:47:27 10° SW 10:51:16 30° WNW 10:55:07 10° NNW
STARLINK-1171 4.2 10:50:24 11° WNW 10:53:22 28° SW 10:56:25 10° SSE
NOSS 3-4 (A) 3.9 10:46:48 10° NW 10:53:57 82° WSW 11:01:47 10° SSE
NOSS 3-4 (C) 3.9 10:46:54 10° NW 10:54:03 83° WSW 11:01:53 10° SSE
PAYLOAD B 4.2 10:48:59 10° N 10:54:29 64° WNW 10:59:55 10° SSW
STARLINK-1155 4.3 10:53:17 10° WNW 10:56:18 27° SW 10:59:18 10° S
STARLINK-1166 4.4 10:56:25 10° WNW 10:59:21 25° SW 11:02:17 10° S
Cosmos 1470 Rocket 4.1 10:56:06 10° NNW 11:00:15 38° W 11:04:23 10° SSW
Cosmos 1782 2.8 10:57:23 10° S 11:01:25 87° W 11:05:28 10° N
Cosmos 1814 Rocket 4.1 11:00:08 10° NNW 11:05:19 62° WSW 11:10:32 10° S
DELTA 2 R/B (1) 3.9 11:00:22 10° W 11:05:51 58° SSW 11:11:18 10° ESE
Meteor 1-25 Rocket 4.2 11:01:29 10° NNW 11:06:58 61° W 11:12:27 10° S
